Location: ??????
(56.0120°N, 39.1740°E)
Time: 06:38:27
(UTC+00:00)

COSMOS 2455 - Pass Details

Date: 14 April 2026
Orbit: 901 x 907 km, 67.1° (Epoch: 10 May)

Event Time Altitude Azimuth Distance (km) Brightness Sun altitude
Rises 17:30:33 0° 298° (WNW) 3,542 8.4 -8.7°
Reaches altitude 10° 17:33:25 10° 309° (NW) 2,601 6.9 -9.1°
Maximum altitude 17:38:40 30° 9° (N) 1,582 4.4 -9.7°
Drops below altitude 10° 17:43:54 10° 70° (ENE) 2,598 4.9 -10.3°
Enters shadow 17:46:18 - 80° (E) 3,380 5.4 -10.6°
